Time,TemperatureF,DewpointF,PressureIn,WindDirection,WindDirectionDegrees,WindSpeedMPH,WindSpeedGustMPH,Humidity,HourlyPrecipIn,Conditions,Clouds,dailyrainin,SoftwareType,DateUTC
2013-07-09 00:22:00,78.0,72.0,30.01,South,181,5.0,7.0,82,0.00,,,0.00,,2013-07-09 04:22:00,
2013-07-09 00:42:00,78.0,72.0,30.01,SW,225,5.0,8.0,81,0.00,,,0.00,,2013-07-09 04:42:00,
2013-07-09 01:02:00,78.0,72.0,30.01,SW,220,5.0,8.0,81,0.00,,,0.00,,2013-07-09 05:02:00,
2013-07-09 01:11:00,78.0,72.0,30.01,SW,220,5.0,8.0,81,0.00,,,0.00,,2013-07-09 05:11:00,
2013-07-09 01:33:00,77.0,71.0,30.01,SSW,202,5.0,7.0,82,0.00,,,0.00,,2013-07-09 05:33:00,
2013-07-09 01:42:00,77.0,71.0,30.01,SSW,203,5.0,7.0,82,0.00,,,0.00,,2013-07-09 05:42:00,
2013-07-09 02:01:00,77.0,72.0,30.00,SSW,194,5.0,8.0,84,0.00,,,0.00,,2013-07-09 06:01:00,
2013-07-09 02:11:00,76.0,71.0,30.00,SSW,208,4.0,7.0,85,0.00,,,0.00,,2013-07-09 06:11:00,
2013-07-09 02:22:00,76.0,71.0,30.00,South,178,5.0,7.0,85,0.00,,,0.00,,2013-07-09 06:22:00,
2013-07-09 02:43:00,76.0,71.0,30.00,SSW,208,5.0,8.0,85,0.00,,,0.00,,2013-07-09 06:43:00,
2013-07-09 02:53:00,76.0,71.0,30.00,SSW,205,5.0,8.0,85,0.00,,,0.00,,2013-07-09 06:53:00,
2013-07-09 03:02:00,76.0,71.0,29.99,SSW,200,6.0,9.0,85,0.00,,,0.00,,2013-07-09 07:02:00,
2013-07-09 03:12:00,76.0,71.0,30.00,SW,219,5.0,7.0,85,0.00,,,0.00,,2013-07-09 07:12:00,
2013-07-09 03:22:00,76.0,72.0,29.99,SW,215,5.0,7.0,86,0.00,,,0.00,,2013-07-09 07:22:00,
2013-07-09 03:34:00,76.0,72.0,29.99,SSW,209,5.0,8.0,86,0.00,,,0.00,,2013-07-09 07:34:00,
2013-07-09 03:43:00,76.0,72.0,29.99,South,175,4.0,7.0,86,0.00,,,0.00,,2013-07-09 07:43:00,
2013-07-09 03:53:00,76.0,72.0,30.00,South,191,5.0,7.0,86,0.00,,,0.00,,2013-07-09 07:53:00,
2013-07-09 04:01:00,76.0,72.0,29.99,SSW,192,5.0,10.0,86,0.00,,,0.00,,2013-07-09 08:01:00,
2013-07-09 04:22:00,76.0,72.0,29.99,South,182,5.0,7.0,86,0.00,,,0.00,,2013-07-09 08:22:00,
2013-07-09 04:33:00,75.0,71.0,29.99,SSE,160,6.0,10.0,86,0.00,,,0.00,,2013-07-09 08:33:00,
2013-07-09 04:43:00,75.0,71.0,29.99,SSW,207,5.0,6.0,87,0.00,,,0.00,,2013-07-09 08:43:00,
2013-07-09 04:52:00,75.0,71.0,29.99,South,176,4.0,8.0,88,0.00,,,0.00,,2013-07-09 08:52:00,
2013-07-09 05:02:00,75.0,71.0,29.99,SSW,196,4.0,7.0,88,0.00,,,0.00,,2013-07-09 09:02:00,
2013-07-09 05:12:00,75.0,71.0,30.00,SW,230,5.0,8.0,88,0.00,,,0.00,,2013-07-09 09:12:00,
2013-07-09 05:42:00,75.0,72.0,29.99,SW,218,5.0,7.0,89,0.00,,,0.00,,2013-07-09 09:42:00,
2013-07-09 06:33:00,74.0,71.0,30.00,SSW,200,5.0,7.0,89,0.00,,,0.00,,2013-07-09 10:33:00,
2013-07-09 06:42:00,74.0,71.0,30.00,SSE,159,5.0,8.0,89,0.00,,,0.00,,2013-07-09 10:42:00,
2013-07-09 06:52:00,74.0,71.0,30.00,SSW,198,5.0,7.0,89,0.00,,,0.00,,2013-07-09 10:52:00,
2013-07-09 07:53:00,74.0,71.0,30.00,South,175,5.0,7.0,90,0.00,,,0.00,,2013-07-09 11:53:00,
2013-07-09 08:33:00,75.0,72.0,30.00,SW,215,4.0,8.0,89,0.00,,,0.00,,2013-07-09 12:33:00,
2013-07-09 08:52:00,76.0,72.0,30.01,SSW,204,4.0,7.0,88,0.00,,,0.00,,2013-07-09 12:52:00,
2013-07-09 09:43:00,78.0,72.0,30.01,SW,222,6.0,9.0,83,0.00,,,0.00,,2013-07-09 13:43:00,
2013-07-09 09:53:00,78.0,72.0,30.01,SSW,201,6.0,10.0,83,0.00,,,0.00,,2013-07-09 13:53:00,
2013-07-09 10:34:00,81.0,74.0,30.00,South,181,7.0,11.0,79,0.00,,,0.00,,2013-07-09 14:34:00,
2013-07-09 10:43:00,81.0,73.0,30.00,South,182,6.0,9.0,77,0.00,,,0.00,,2013-07-09 14:43:00,
2013-07-09 10:53:00,82.0,74.0,30.00,SSW,198,5.0,9.0,77,0.00,,,0.00,,2013-07-09 14:53:00,
2013-07-09 12:43:00,85.0,75.0,29.99,SW,234,8.0,13.0,73,0.00,,,0.00,,2013-07-09 16:43:00,
2013-07-09 13:11:00,85.0,75.0,30.00,SW,232,8.0,14.0,71,0.00,,,0.00,,2013-07-09 17:11:00,
2013-07-09 14:02:00,85.0,75.0,29.99,SW,223,9.0,15.0,71,0.00,,,0.00,,2013-07-09 18:02:00,
2013-07-09 14:32:00,86.0,75.0,29.98,WSW,244,9.0,16.0,70,0.00,,,0.00,,2013-07-09 18:32:00,
2013-07-09 14:43:00,87.0,76.0,29.97,South,174,8.0,15.0,69,0.00,,,0.00,,2013-07-09 18:43:00,
2013-07-09 14:52:00,87.0,75.0,29.97,WNW,289,9.0,13.0,68,0.00,,,0.00,,2013-07-09 18:52:00,
2013-07-09 15:52:00,87.0,74.0,29.95,SSW,199,9.0,14.0,65,0.00,,,0.00,,2013-07-09 19:52:00,
2013-07-09 16:01:00,87.0,74.0,29.95,SW,235,8.0,13.0,66,0.00,,,0.00,,2013-07-09 20:01:00,
2013-07-09 16:43:00,86.0,75.0,29.94,SSW,211,7.0,10.0,70,0.00,,,0.00,,2013-07-09 20:43:00,
2013-07-09 16:52:00,86.0,75.0,29.94,SSW,198,6.0,11.0,70,0.00,,,0.00,,2013-07-09 20:52:00,
2013-07-09 17:32:00,88.0,75.0,29.93,SSW,212,9.0,13.0,65,0.00,,,0.00,,2013-07-09 21:32:00,
2013-07-09 17:52:00,88.0,74.0,29.93,SSE,161,9.0,15.0,63,0.00,,,0.00,,2013-07-09 21:52:00,
2013-07-09 18:33:00,88.0,73.0,29.92,SW,233,10.0,16.0,62,0.00,,,0.00,,2013-07-09 22:33:00,
2013-07-09 18:42:00,88.0,74.0,29.92,South,183,7.0,12.0,64,0.00,,,0.00,,2013-07-09 22:42:00,
2013-07-09 18:53:00,88.0,74.0,29.92,South,171,6.0,12.0,64,0.00,,,0.00,,2013-07-09 22:53:00,
2013-07-09 19:33:00,86.0,75.0,29.91,SSW,195,5.0,10.0,70,0.00,,,0.00,,2013-07-09 23:33:00,
2013-07-09 19:43:00,86.0,75.0,29.91,SSW,193,5.0,9.0,71,0.00,,,0.00,,2013-07-09 23:43:00,
2013-07-09 19:53:00,85.0,75.0,29.91,WSW,239,6.0,8.0,72,0.00,,,0.00,,2013-07-09 23:53:00,
2013-07-09 20:01:00,85.0,75.0,29.90,South,181,4.0,7.0,73,0.00,,,0.00,,2013-07-10 00:01:00,
2013-07-09 20:11:00,85.0,76.0,29.90,SW,217,4.0,8.0,74,0.00,,,0.00,,2013-07-10 00:11:00,
2013-07-09 20:22:00,85.0,76.0,29.90,South,183,4.0,7.0,75,0.00,,,0.00,,2013-07-10 00:22:00,
2013-07-09 20:33:00,84.0,75.0,29.90,South,182,5.0,7.0,75,0.00,,,0.00,,2013-07-10 00:33:00,
2013-07-09 20:42:00,84.0,76.0,29.89,South,187,4.0,7.0,76,0.00,,,0.00,,2013-07-10 00:42:00,
2013-07-09 20:52:00,84.0,75.0,29.89,South,191,4.0,9.0,75,0.00,,,0.00,,2013-07-10 00:52:00,
2013-07-09 21:01:00,84.0,75.0,29.89,South,173,5.0,8.0,75,0.00,,,0.00,,2013-07-10 01:01:00,
2013-07-09 21:11:00,84.0,75.0,29.89,South,173,5.0,8.0,75,0.00,,,0.00,,2013-07-10 01:11:00,
2013-07-09 21:22:00,84.0,76.0,29.90,SW,217,4.0,7.0,76,0.00,,,0.00,,2013-07-10 01:22:00,
2013-07-09 21:53:00,83.0,74.0,29.91,West,261,4.0,7.0,75,0.00,,,0.00,,2013-07-10 01:53:00,
2013-07-09 23:43:00,81.0,74.0,29.91,South,179,6.0,11.0,79,0.00,,,0.00,,2013-07-10 03:43:00,
2013-07-09 23:52:00,81.0,74.0,29.91,South,170,6.0,11.0,79,0.00,,,0.00,,2013-07-10 03:52:00,